WA8SIE Weather Reports


time (UTC)temp
C
wind
direction
speed
KPH
gust
KPH
rain 1hr
cm
rain 24hr
cm
rain mn
cm
humidity
%
barometer
mb
20260831005510 25 0.0 0.0 0.00 0.00 0.00 92 1013.8
20260831005011 25 0.0 0.0 0.00 0.00 0.00 91 1013.8
20260831004510 25 1 0.0 0.0 0.00 0.00 0.00 91 1013.8
20260831004010 25 0.0 1.6 0.00 0.00 0.00 90 1013.8
20260831003510 25 0.0 1.6 0.00 0.00 0.00 90 1013.8
20260831003011 25 0.0 0.0 0.00 0.00 0.00 89 1013.8
20260831002512 25 0.0 0.0 0.00 0.00 0.00 88 1013.7
20260831002010 26 0.0 0.0 0.00 0.00 0.00 87 1013.7
20260831001512 26 0.0 0.0 0.00 0.00 0.00 86 1013.7
20260831001010 26 0.0 0.0 0.00 0.00 0.00 85 1013.6
20260831000510 26 1 0.0 0.0 0.00 0.00 0.00 84 1013.6
20260831000012 26 0.0 0.0 0.00 0.00 0.00 83 1013.6
20260830235510 26 0.0 0.0 0.00 0.00 0.00 82 1013.6
20260830235010 26 1 0.0 0.0 0.00 0.00 0.00 81 1013.6
20260830234510 26 1 0.0 0.0 0.00 0.00 0.00 81 1013.6
20260830234010 26 0.0 1.6 0.00 0.00 0.00 80 1013.3
20260830233510 26 1 0.0 1.6 0.00 0.00 0.00 80 1013.3
20260830233011 27 0.0 0.0 0.00 0.00 0.00 79 1013.3
20260830232510 27 0.0 0.0 0.00 0.00 0.00 79 1013.2
20260830232010 27 0.0 0.0 0.00 0.00 0.00 78 1013.2
20260830231511 27 0.0 0.0 0.00 0.00 0.00 80 1013.2
20260830231011 27 0.0 0.0 0.00 0.00 0.00 80 1013.2
20260830230511 27 0.0 0.0 0.00 0.00 0.00 79 1013.2
20260830230010 27 0.0 0.0 0.00 0.00 0.00 78 1013.2
20260830225511 27 1 0.0 0.0 0.00 0.00 0.00 77 1013.3
20260830225011 27 1 0.0 0.0 0.00 0.00 0.00 76 1013.3
20260830224511 27 0.0 0.0 0.00 0.00 0.00 75 1013.3
20260830224011 28 0.0 0.0 0.00 0.00 0.00 75 1013.4
20260830223511 28 1 0.0 0.0 0.00 0.00 0.00 74 1013.4
20260830223013 28 1 0.0 0.0 0.00 0.00 0.00 75 1013.4
20260830222511 28 0.0 0.0 0.00 0.00 0.00 73 1013.6
20260830222013 28 1 0.0 0.0 0.00 0.00 0.00 70 1013.6
20260830221513 28 0.0 0.0 0.00 0.00 0.00 67 1013.6
20260830221011 28 1 0.0 0.0 0.00 0.00 0.00 66 1013.5
20260830220511 28 1 0.0 0.0 0.00 0.00 0.00 67 1013.5
20260830220011 28 1 0.0 0.0 0.00 0.00 0.00 65 1013.5
20260830215511 28 0.0 6.4 0.00 0.00 0.00 64 1013.6
20260830215011 28 8 0.0 6.4 0.00 0.00 0.00 65 1013.6
20260830214513 28 278 0.0 6.4 0.00 0.00 0.00 65 1013.6
20260830214011 29 274 1.6 6.4 0.00 0.00 0.00 66 1013.7
20260830213512 29 285 0.0 0.0 0.00 0.00 0.00 66 1013.7
20260830213011 29 285 0.0 4.8 0.00 0.00 0.00 63 1013.7
20260830212511 30 285 0.0 4.8 0.00 0.00 0.00 63 1013.6
20260830212012 30 326 0.0 4.8 0.00 0.00 0.00 63 1013.6
20260830211511 29 323 0.0 6.4 0.00 0.00 0.00 62 1013.6
20260830211011 29 323 0.0 8.0 0.00 0.00 0.00 61 1013.6
20260830210513 29 326 0.0 8.0 0.00 0.00 0.00 61 1013.6
20260830210011 29 299 4.8 6.4 0.00 0.00 0.00 64 1013.6
20260830205011 29 312 0.0 0.0 0.00 0.00 0.00 66 1013.7
20260830204511 28 312 0.0 0.0 0.00 0.00 0.00 65 1013.7
20260830204011 28 313 0.0 6.4 0.00 0.00 0.00 67 1013.7
20260830203511 28 313 0.0 6.4 0.00 0.00 0.00 68 1013.7
20260830203011 28 312 3.2 0.0 0.00 0.00 0.00 68 1013.7
20260830202511 28 312 0.0 0.0 0.00 0.00 0.00 68 1014.2
20260830202011 28 312 0.0 0.0 0.00 0.00 0.00 69 1014.2
20260830201511 28 317 0.0 11.3 0.00 0.00 0.00 69 1014.2
20260830200511 28 319 0.0 19.3 0.00 0.00 0.00 66 1014.2
20260830200011 29 333 3.2 16.1 0.00 0.00 0.00 66 1014.2
20260830195511 30 217 0.0 16.1 0.00 0.00 0.00 65 1014.0
20260830195013 30 285 3.2 14.5 0.00 0.00 0.00 63 1014.0
20260830194513 30 256 0.0 25.7 0.00 0.00 0.00 61 1014.0
20260830194011 31 270 6.4 25.7 0.00 0.00 0.00 59 1014.0
20260830193011 32 276 0.0 1.6 0.00 0.00 0.00 58 1014.0
20260830192512 32 265 0.0 3.2 0.00 0.00 0.00 57 1014.0
20260830192011 32 313 0.0 3.2 0.00 0.00 0.00 55 1014.0
20260830191511 32 191 0.0 3.2 0.00 0.00 0.00 59 1014.0
20260830191011 32 251 0.0 3.2 0.00 0.00 0.00 57 1014.2
20260830190012 32 202 0.0 4.8 0.00 0.00 0.00 57 1014.2
20260830185511 32 240 0.0 1.6 0.00 0.00 0.00 58 1014.4
20260830185011 32 269 0.0 6.4 0.00 0.00 0.00 60 1014.4
20260830184511 32 184 0.0 11.3 0.00 0.00 0.00 59 1014.4
20260830183511 31 190 4.8 9.7 0.00 0.00 0.00 59 1014.7
20260830183011 31 274 0.0 9.7 0.00 0.00 0.00 61 1014.7
20260830182011 31 205 4.8 9.7 0.00 0.00 0.00 60 1015.0
20260830181512 31 192 0.0 9.7 0.00 0.00 0.00 59 1015.0
20260830181011 31 343 8.0 11.3 0.00 0.00 0.00 62 1015.2
20260830180511 31 206 1.6 11.3 0.00 0.00 0.00 65 1015.2
20260830180010 31 212 8.0 4.8 0.00 0.00 0.00 64 1015.2
20260830175511 30 243 0.0 8.0 0.00 0.00 0.00 63 1015.6
20260830175011 30 191 0.0 8.0 0.00 0.00 0.00 63 1015.6
20260830173510 31 212 0.0 3.2 0.00 0.00 0.00 64 1015.7
20260830173012 30 213 0.0 16.1 0.00 0.00 0.00 65 1015.7
20260830172510 30 183 0.0 16.1 0.00 0.00 0.00 66 1015.9
20260830172011 30 193 0.0 6.4 0.00 0.00 0.00 66 1015.9
20260830171510 29 195 0.0 8.0 0.00 0.00 0.00 66 1015.9
20260830171010 29 186 0.0 9.7 0.00 0.00 0.00 68 1016.1
20260830170511 30 186 4.8 9.7 0.00 0.00 0.00 65 1016.1
20260830170011 30 314 0.0 8.0 0.00 0.00 0.00 63 1016.1
20260830165510 31 298 0.0 6.4 0.00 0.00 0.00 64 1016.1
20260830165011 31 297 3.2 8.0 0.00 0.00 0.00 64 1016.1
20260830164511 31 310 3.2 9.7 0.00 0.00 0.00 63 1016.1
20260830164011 30 328 0.0 9.7 0.00 0.00 0.00 64 1016.2
20260830163511 30 327 0.0 6.4 0.00 0.00 0.00 63 1016.2
20260830163011 30 291 0.0 11.3 0.00 0.00 0.00 64 1016.2
20260830162012 30 165 0.0 4.8 0.00 0.00 0.00 66 1016.2
20260830161012 30 254 0.0 14.5 0.00 0.00 0.00 65 1016.4
20260830160511 30 302 14.5 3.2 0.00 0.00 0.00 66 1016.4
20260830160011 30 273 0.0 4.8 0.00 0.00 0.00 65 1016.4
20260830155510 30 306 0.0 8.0 0.00 0.00 0.00 66 1016.4
20260830155010 30 323 0.0 9.7 0.00 0.00 0.00 67 1016.4
20260830154510 29 131 0.0 9.7 0.00 0.00 0.00 66 1016.4
20260830154010 29 316 0.0 4.8 0.00 0.00 0.00 66 1016.3
20260830153510 29 231 0.0 8.0 0.00 0.00 0.00 67 1016.3
20260830153012 28 204 0.0 8.0 0.00 0.00 0.00 67 1016.3
20260830152510 28 301 0.0 6.4 0.00 0.00 0.00 68 1016.3
20260830152011 28 48 0.0 3.2 0.00 0.00 0.00 68 1016.3
20260830151510 28 226 0.0 1.6 0.00 0.00 0.00 68 1016.3
20260830151011 28 193 0.0 6.4 0.00 0.00 0.00 70 1016.3
20260830150510 28 193 0.0 6.4 0.00 0.00 0.00 71 1016.3
20260830150010 28 195 0.0 14.5 0.00 0.00 0.00 71 1016.3
20260830145010 27 198 0.0 14.5 0.00 0.00 0.00 70 1016.3
20260830144510 27 195 0.0 9.7 0.00 0.00 0.00 73 1016.3
20260830144010 27 212 0.0 14.5 0.00 0.00 0.00 73 1016.3
20260830143510 27 186 6.4 14.5 0.00 0.00 0.00 73 1016.3
20260830143010 27 217 12.9 11.3 0.00 0.00 0.00 73 1016.3
20260830142513 26 207 3.2 11.3 0.00 0.00 0.00 73 1016.3
20260830142011 26 214 0.0 8.0 0.00 0.00 0.00 75 1016.3
20260830141011 26 192 0.0 14.5 0.00 0.00 0.00 74 1016.2
20260830140511 26 219 0.0 14.5 0.00 0.00 0.00 75 1016.2
20260830140011 26 209 6.4 11.3 0.00 0.00 0.00 77 1016.2
20260830134511 26 165 1.6 8.0 0.00 0.00 0.00 79 1016.2
20260830134011 25 80 3.2 8.0 0.00 0.00 0.00 79 1016.1
20260830133011 25 114 0.0 6.4 0.00 0.00 0.00 85 1016.1
20260830132511 24 114 0.0 6.4 0.00 0.00 0.00 85 1016.1
20260830131511 23 100 0.0 3.2 0.00 0.00 0.00 89 1016.1
20260830131011 23 99 0.0 3.2 0.00 0.00 0.00 91 1016.2
20260830130513 23 99 0.0 3.2 0.00 0.00 0.00 93 1016.2
20260830130011 23 99 1.6 3.2 0.00 0.00 0.00 95 1016.2
20260830125511 23 100 0.0 0.0 0.00 0.00 0.00 99 1016.4
20260830125011 22 99 0.0 0.0 0.00 0.00 0.00 100 1016.4
20260830124511 22 99 0.0 0.0 0.00 0.00 0.00 100 1016.4
20260830124011 22 99 0.0 0.0 0.00 0.00 0.00 100 1016.4
20260830123513 21 100 0.0 0.0 0.00 0.00 0.00 100 1016.4
20260830123011 21 100 0.0 1.6 0.00 0.00 0.00 100 1016.4
20260830122511 21 99 0.0 1.6 0.00 0.00 0.00 100 1016.3
20260830121511 20 101 0.0 3.2 0.00 0.00 0.00 100 1016.3
20260830121011 20 100 0.0 3.2 0.00 0.00 0.00 100 1016.0
20260830120013 20 100 0.0 0.0 0.00 0.00 0.00 100 1016.0
20260830115511 20 100 0.0 0.0 0.00 0.00 0.00 100 1016.1
20260830115011 19 99 0.0 0.0 0.00 0.00 0.00 100 1016.1
20260830114511 19 101 0.0 0.0 0.00 0.00 0.00 100 1016.1
20260830114011 19 99 0.0 0.0 0.00 0.00 0.00 100 1016.1
20260830113011 19 98 0.0 0.0 0.00 0.00 0.00 100 1016.1
20260830112511 19 99 0.0 0.0 0.00 0.00 0.00 100 1016.0
20260830111511 19 100 0.0 0.0 0.00 0.00 0.00 100 1016.0
20260830111011 18 99 0.0 0.0 0.00 0.00 0.00 100 1015.9
20260830110511 19 100 0.0 0.0 0.00 0.00 0.00 100 1015.9
20260830110011 19 100 0.0 0.0 0.00 0.00 0.00 100 1015.9
20260830105511 19 99 0.0 0.0 0.00 0.00 0.00 100 1015.8
20260830105011 19 100 0.0 0.0 0.00 0.00 0.00 100 1015.8
20260830104511 19 99 0.0 0.0 0.00 0.00 0.00 100 1015.8
20260830104011 19 100 0.0 3.2 0.00 0.00 0.00 100 1015.7
20260830103511 19 99 0.0 3.2 0.00 0.00 0.00 100 1015.7
20260830103013 19 100 3.2 3.2 0.00 0.00 0.00 100 1015.7
20260830102511 19 99 0.0 0.0 0.00 0.00 0.00 100 1015.8
20260830102011 19 100 0.0 0.0 0.00 0.00 0.00 100 1015.8
20260830101511 19 100 0.0 3.2 0.00 0.00 0.00 100 1015.8
20260830101011 19 100 0.0 3.2 0.00 0.00 0.00 100 1015.7
20260830100011 19 99 0.0 0.0 0.00 0.00 0.00 100 1015.7
20260830095511 19 100 0.0 0.0 0.00 0.00 0.00 100 1015.8
20260830095011 19 100 0.0 0.0 0.00 0.00 0.00 100 1015.8
20260830094511 19 99 0.0 0.0 0.00 0.00 0.00 100 1015.8
20260830094011 20 99 0.0 0.0 0.00 0.00 0.00 100 1015.6
20260830093510 20 99 0.0 0.0 0.00 0.00 0.00 100 1015.6
20260830093011 20 99 0.0 0.0 0.00 0.00 0.00 100 1015.6
20260830092011 20 100 0.0 0.0 0.00 0.00 0.00 100 1015.5
20260830091510 20 100 0.0 0.0 0.00 0.00 0.00 100 1015.5
20260830091012 20 100 0.0 0.0 0.00 0.00 0.00 100 1015.4
20260830090512 20 100 0.0 0.0 0.00 0.00 0.00 100 1015.4
20260830090011 20 99 0.0 0.0 0.00 0.00 0.00 100 1015.4
20260830085510 20 99 0.0 0.0 0.00 0.00 0.00 100 1015.4
20260830085011 20 100 0.0 0.0 0.00 0.00 0.00 100 1015.4
20260830084511 20 99 0.0 0.0 0.00 0.00 0.00 100 1015.4
20260830084011 20 99 0.0 0.0 0.00 0.00 0.00 100 1015.3
20260830083512 20 100 0.0 0.0 0.00 0.00 0.00 100 1015.3
20260830083011 20 100 0.0 0.0 0.00 0.00 0.00 100 1015.3
20260830082511 20 99 0.0 0.0 0.00 0.00 0.00 100 1015.3
20260830082010 20 99 0.0 0.0 0.00 0.00 0.00 100 1015.3
20260830081511 20 99 0.0 0.0 0.00 0.00 0.00 100 1015.3
20260830080512 20 99 0.0 0.0 0.00 0.00 0.00 100 1015.2
20260830080011 20 100 0.0 0.0 0.00 0.00 0.00 100 1015.2
20260830075511 20 100 0.0 0.0 0.00 0.00 0.00 100 1015.2
20260830075011 20 100 0.0 0.0 0.00 0.00 0.00 100 1015.2
20260830074512 20 99 0.0 0.0 0.00 0.00 0.00 100 1015.2
20260830074010 20 99 0.0 0.0 0.00 0.00 0.00 100 1015.2
20260830073512 20 99 0.0 3.2 0.00 0.00 0.00 100 1015.2
20260830073012 20 100 0.0 4.8 0.00 0.00 0.00 100 1015.2
20260830072511 20 100 3.2 4.8 0.00 0.00 0.00 100 1015.3
20260830072012 20 100 0.0 0.0 0.00 0.00 0.00 100 1015.3
20260830071510 20 100 0.0 0.0 0.00 0.00 0.00 100 1015.3
20260830071010 20 99 0.0 0.0 0.00 0.00 0.00 100 1015.3
20260830070510 20 100 0.0 0.0 0.00 0.00 0.00 100 1015.3
20260830070011 20 100 0.0 0.0 0.00 0.00 0.00 100 1015.3
20260830065512 21 100 0.0 0.0 0.00 0.00 0.00 100 1015.4
20260830065012 21 99 0.0 0.0 0.00 0.00 0.00 100 1015.4
20260830064510 21 100 0.0 0.0 0.00 0.00 0.00 100 1015.4
20260830064010 21 100 0.0 0.0 0.00 0.00 0.00 100 1015.4
20260830063011 21 100 0.0 0.0 0.00 0.00 0.00 100 1015.4
20260830062511 21 100 0.0 0.0 0.00 0.00 0.00 100 1015.4
20260830062010 21 99 0.0 0.0 0.00 0.00 0.00 100 1015.4
20260830061012 21 99 0.0 0.0 0.00 0.00 0.00 100 1015.7
20260830060010 21 99 0.0 3.2 0.00 0.00 0.00 100 1015.7
20260830055511 21 99 0.0 3.2 0.00 0.00 0.00 100 1015.7
20260830055010 21 100 1.6 0.0 0.00 0.00 0.00 100 1015.7
20260830054510 21 99 0.0 0.0 0.00 0.00 0.00 100 1015.7
20260830054010 21 100 0.0 0.0 0.00 0.00 0.00 100 1015.7
20260830053510 21 100 0.0 0.0 0.00 0.00 0.00 100 1015.7
20260830053012 21 99 0.0 0.0 0.00 0.00 0.00 100 1015.7
20260830052511 21 100 0.0 0.0 0.00 0.00 0.00 100 1015.6
20260830052010 21 100 0.0 0.0 0.00 0.00 0.00 100 1015.6
20260830051512 21 100 0.0 0.0 0.00 0.00 0.00 100 1015.6
20260830051010 21 100 0.0 0.0 0.00 0.00 0.00 100 1015.5
20260830050510 21 99 0.0 0.0 0.00 0.00 0.00 100 1015.5
20260830050013 21 100 0.0 0.0 0.00 0.00 0.00 100 1015.5
20260830044511 22 99 0.0 0.0 0.00 0.00 0.00 100 1015.5
20260830043511 22 99 0.0 0.0 0.00 0.00 0.00 100 1015.4
20260830043011 22 100 0.0 0.0 0.00 0.00 0.00 100 1015.4
20260830042511 22 99 0.0 0.0 0.00 0.00 0.00 100 1015.4
20260830042011 22 99 0.0 0.0 0.00 0.00 0.00 100 1015.4
20260830041511 22 99 0.0 0.0 0.00 0.00 0.00 100 1015.4
20260830041011 22 100 0.0 0.0 0.00 0.00 0.00 100 1015.4
20260830040511 22 100 0.0 0.0 0.00 0.00 0.00 100 1015.4
20260830040011 22 99 0.0 0.0 0.00 0.00 0.00 100 1015.4
20260830035511 22 100 0.0 0.0 0.00 0.00 0.00 99 1015.4
20260830034513 22 100 0.0 0.0 0.00 0.00 0.00 99 1015.4
20260830034011 22 100 0.0 0.0 0.00 0.00 0.00 99 1015.3
20260830033512 22 100 0.0 3.2 0.00 0.00 0.00 99 1015.3
20260830033011 22 100 0.0 3.2 0.00 0.00 0.00 99 1015.3
20260830032511 22 99 0.0 0.0 0.00 0.00 0.00 98 1015.3
20260830032011 22 99 0.0 0.0 0.00 0.00 0.00 98 1015.3
20260830031511 22 100 0.0 0.0 0.00 0.00 0.00 98 1015.3
20260830031011 22 100 0.0 4.8 0.00 0.00 0.00 98 1015.4
20260830030513 22 100 0.0 4.8 0.00 0.00 0.00 98 1015.4
20260830030011 22 100 4.8 4.8 0.00 0.00 0.00 97 1015.4
20260830025511 22 99 4.8 3.2 0.00 0.00 0.00 97 1015.3
20260830025011 22 100 0.0 0.0 0.00 0.00 0.00 97 1015.3
20260830024513 23 100 0.0 0.0 0.00 0.00 0.00 97 1015.3
20260830024011 23 100 0.0 0.0 0.00 0.00 0.00 96 1015.3
20260830023511 23 98 0.0 3.2 0.00 0.00 0.00 96 1015.3
20260830021011 23 99 0.0 3.2 0.00 0.00 0.00 94 1015.2
20260830020511 23 99 0.0 3.2 0.00 0.00 0.00 94 1015.2
20260830020011 23 100 3.2 3.2 0.00 0.00 0.00 93 1015.2
20260830015512 23 99 0.0 1.6 0.00 0.00 0.00 93 1015.3
20260830015011 23 99 0.0 1.6 0.00 0.00 0.00 92 1015.3
20260830014511 23 100 1.6 0.0 0.00 0.00 0.00 92 1015.3
20260830014011 23 99 0.0 0.0 0.00 0.00 0.00 92 1015.1
20260830013511 23 99 0.0 0.0 0.00 0.00 0.00 91 1015.1
20260830013011 23 100 0.0 0.0 0.00 0.00 0.00 90 1015.1
20260830012511 23 98 0.0 0.0 0.00 0.00 0.00 90 1014.9
20260830012012 24 99 0.0 0.0 0.00 0.00 0.00 89 1014.9
20260830011011 24 99 0.0 0.0 0.00 0.00 0.00 88 1014.9
20260830010511 24 100 0.0 0.0 0.00 0.00 0.00 88 1014.9